Location: Bouillancy
(49.1149°N, 2.9308°E)
Time: 08:36:36
(UTC+00:00)

NOSS 3-1 (A) - Pass Details

Date: 30 September 2020
Orbit: 745 x 1467 km, 63.4° (Epoch: 08 October)

Event Time Altitude Azimuth Distance (km) Brightness Sun altitude
Rises 21:05:17 0° 316° (NW) 3,814 7.7 -33.8°
Reaches altitude 10° 21:07:50 10° 321° (NW) 2,958 6.8 -34.1°
Enters shadow 21:14:31 54° 29° (NNE) 1,476 4.3 -34.9°
